Location: Del Amo
(33.8464°N, 118.2104°W)
Time: 02:19:20
(UTC+00:00)

SR - Pass Details

Date: 21 September 2024
Orbit: 578 x 855 km, 66.7° (Epoch: 02 October)

Event Time Altitude Azimuth Distance (km) Brightness Sun altitude
Rises 05:16:28 0° 328° (NNW) 3,018 ? -40.9°
Reaches altitude 10° 05:18:45 10° 323° (NW) 2,143 ? -41.3°
Enters shadow 05:19:01 12° 322° (NW) 2,044 ? -41.4°
Maximum altitude 05:23:30 54° 247° (WSW) 890 - -42.1°
Drops below altitude 10° 05:28:38 10° 171° (S) 2,312 - -42.9°
Sets 05:31:10 0° 167° (SSE) 3,277 - -43.3°
